Weather History for KMVY - December, 2013

Change the Weather History Date:

Monday, December 23, 2013

  Actual Average Record
Temperature  
Mean Temperature 48 °F -  
Max Temperature 57 °F 41 °F 57 °F (2013)
Min Temperature 39 °F 25 °F 4 °F (1954)
Degree Days  
Heating Degree Days 17    
Moisture  
Dew Point 44 °F    
Average Humidity 92    
Maximum Humidity 100    
Minimum Humidity 80    
Precipitation  
Precipitation 0.38 in - - ()
Sea Level Pressure  
Sea Level Pressure 30.01 in    
Wind  
Wind Speed 7 mph (NNE)    
Max Wind Speed 18 mph    
Max Gust Speed 25 mph    
Visibility 6 miles    
Events Fog , Rain    
Averages and records for this station are not official NWS values.
T = Trace of Precipitation, MM = Missing Value Source: NWS Daily Summary

Daily Weather History Graph

Daily Weather History Graph

Search for Another Location

Airport or City:

Trip Planner

Search our weather history database for the weather conditions in past years. The results will help you decide how hot, cold, wet, or windy it might be!

Date:

Astronomy

Dec. 23, 2013 Rise Set
Actual Time 7:06 AM EST 4:17 PM EST
Civil Twilight 6:34 AM EST 4:48 PM EST
Nautical Twilight 5:59 AM EST 5:23 PM EST
Astronomical Twilight 5:26 AM EST 5:57 PM EST
Moon 10:28 PM EST 10:26 AM EST
Length of Visible Light 10h 13m
Length of Day
9h 11m
Waning Gibbous, 68% of the Moon is Illuminated
Dec 23
Waning Gibbous
Dec 25
Last Quarter
Jan 1
New
Jan 7
First Quarter
Jan 15
Full

Hourly Weather History & Observations

Time (EST) Temp. Windchill Dew Point Humidity Pressure Visibility Wind Dir Wind Speed Gust Speed Precip Events Conditions
12:53 AM 54.0 °F - 48.9 °F 83% 30.01 in 9.0 mi SW 6.9 mph - N/A   Overcast
1:53 AM 55.9 °F - 50.0 °F 80% 30.01 in 10.0 mi SW 9.2 mph - N/A   Mostly Cloudy
2:53 AM 55.9 °F - 51.1 °F 84% 30.01 in 10.0 mi SW 8.1 mph - N/A   Overcast
3:18 AM 55.4 °F - 51.8 °F 88% 30.01 in 10.0 mi SW 5.8 mph - N/A   Overcast
3:53 AM 55.9 °F - 52.0 °F 87% 30.01 in 10.0 mi WSW 6.9 mph - N/A   Overcast
4:53 AM 57.0 °F - 54.0 °F 89% 30.03 in 8.0 mi SW 10.4 mph - 0.00 in Rain Light Rain
5:11 AM 57.2 °F - 53.6 °F 88% 30.02 in 7.0 mi WSW 5.8 mph - 0.01 in Rain Light Rain
5:53 AM 55.0 °F - 53.1 °F 93% 30.02 in 9.0 mi West 5.8 mph - 0.01 in   Overcast
6:27 AM 53.6 °F - 51.8 °F 94% 30.01 in 6.0 mi Calm Calm - N/A   Overcast
6:43 AM 53.6 °F - 50.0 °F 88% 30.03 in 5.0 mi NNW 3.5 mph - N/A   Overcast
6:53 AM 52.0 °F - 50.0 °F 93% 30.04 in 5.0 mi North 3.5 mph - N/A   Overcast
7:18 AM 50.0 °F - 48.2 °F 94% 30.04 in 3.0 mi NNE 4.6 mph - N/A   Overcast
7:32 AM 46.4 °F 42.4 °F 44.6 °F 93% 30.03 in 1.0 mi East 8.1 mph - N/A   Overcast
7:53 AM 46.0 °F 43.1 °F 44.1 °F 93% 30.04 in 0.2 mi ENE 5.8 mph - N/A Fog Fog
8:00 AM 44.6 °F 40.2 °F 44.6 °F 100% 30.04 in 0.2 mi ENE 8.1 mph - N/A Fog Fog
8:07 AM 44.6 °F 40.2 °F 42.8 °F 93% 30.04 in 0.2 mi ENE 8.1 mph - N/A Fog Fog
8:16 AM 44.6 °F 40.2 °F 42.8 °F 93% 30.04 in 0.5 mi ENE 8.1 mph - N/A Fog Fog
8:53 AM 44.1 °F 40.8 °F 43.0 °F 96% 30.04 in 1.5 mi NE 5.8 mph - 0.00 in   Overcast
9:53 AM 44.1 °F 40.8 °F 43.0 °F 96% 30.04 in 1.8 mi NE 5.8 mph - 0.01 in Rain Light Rain
10:53 AM 45.0 °F 41.8 °F 44.1 °F 97% 30.01 in 1.8 mi NNE 5.8 mph - 0.00 in Rain Light Rain
11:01 AM 44.6 °F 42.2 °F 44.6 °F 100% 30.01 in 2.0 mi NNE 4.6 mph - 0.00 in   Overcast
11:11 AM 44.6 °F 41.4 °F 42.8 °F 93% 30.00 in 1.8 mi NNE 5.8 mph - 0.01 in Rain Rain
11:22 AM 44.6 °F 42.2 °F 42.8 °F 93% 30.00 in 2.5 mi NE 4.6 mph - 0.01 in Rain Light Rain
11:29 AM 44.6 °F 42.2 °F 42.8 °F 93% 30.00 in 4.0 mi NE 4.6 mph - 0.02 in Rain Light Rain
11:53 AM 46.0 °F 44.8 °F 44.1 °F 93% 29.98 in 4.0 mi ENE 3.5 mph - 0.05 in Rain Rain
12:01 PM 46.4 °F - 44.6 °F 93% 29.98 in 2.0 mi Calm Calm - 0.02 in Rain Rain
12:29 PM 46.4 °F 45.2 °F 44.6 °F 93% 29.96 in 2.0 mi ENE 3.5 mph - 0.10 in Rain Light Rain
12:42 PM 46.4 °F 44.3 °F 44.6 °F 93% 29.95 in 2.0 mi ENE 4.6 mph - 0.11 in Rain Light Rain
12:53 PM 46.9 °F - 45.0 °F 93% 29.95 in 2.0 mi ENE 4.6 mph - 0.11 in Rain Light Rain
1:07 PM 46.4 °F 42.9 °F 44.6 °F 93% 29.94 in 2.0 mi ENE 6.9 mph - 0.00 in Rain Light Rain
1:34 PM 46.4 °F 43.5 °F 44.6 °F 93% 29.94 in 10.0 mi ENE 5.8 mph - 0.00 in   Overcast
1:53 PM 46.0 °F 43.9 °F 44.1 °F 93% 29.94 in 10.0 mi East 4.6 mph - 0.00 in   Overcast
2:53 PM 46.9 °F - 44.1 °F 90% 29.95 in 9.0 mi NNE 4.6 mph - 0.01 in Rain Light Rain
3:48 PM 44.6 °F 39.2 °F 42.8 °F 93% 29.97 in 1.0 mi North 10.4 mph - 0.01 in Rain Light Rain
3:53 PM 45.0 °F 40.1 °F 43.0 °F 93% 29.97 in 1.0 mi NNE 9.2 mph - 0.01 in Rain Light Rain
4:31 PM 39.2 °F 29.8 °F 37.4 °F 93% 30.01 in 3.0 mi NNW 18.4 mph 25.3 mph 0.04 in Rain Light Rain
4:41 PM 39.2 °F 31.2 °F 37.4 °F 93% 30.00 in 10.0 mi North 13.8 mph - 0.04 in Rain Light Rain
4:53 PM 39.0 °F 31.4 °F 36.0 °F 89% 29.99 in 8.0 mi North 12.7 mph 20.7 mph 0.05 in Rain Rain
5:09 PM 39.2 °F 33.0 °F 35.6 °F 87% 29.98 in 10.0 mi NNE 9.2 mph 19.6 mph 0.00 in Rain Light Rain
5:28 PM 39.2 °F 34.2 °F 37.4 °F 93% 29.98 in 10.0 mi NE 6.9 mph - 0.00 in Rain Light Rain
5:53 PM 39.9 °F 35.8 °F 37.9 °F 93% 30.00 in 10.0 mi NNE 5.8 mph - 0.01 in Rain Light Rain
6:28 PM 41.0 °F 36.4 °F 37.4 °F 87% 30.03 in 6.0 mi North 6.9 mph - 0.05 in Rain Light Rain
6:53 PM 41.0 °F 39.0 °F 39.0 °F 93% 30.03 in 10.0 mi NE 3.5 mph - 0.05 in Rain Light Rain
7:22 PM 41.0 °F 38.0 °F 39.2 °F 93% 30.01 in 7.0 mi NE 4.6 mph - 0.03 in Rain Light Rain
7:53 PM 42.1 °F 39.2 °F 39.9 °F 92% 30.01 in 10.0 mi ENE 4.6 mph - 0.04 in Rain Light Rain
8:53 PM 43.0 °F - 41.0 °F 93% 30.01 in 10.0 mi Calm Calm - 0.02 in Rain Light Rain
9:53 PM 44.1 °F 39.0 °F 41.0 °F 89% 30.02 in 10.0 mi NW 9.2 mph - 0.00 in Rain Light Rain
10:12 PM 44.6 °F 38.4 °F 41.0 °F 87% 30.03 in 10.0 mi NNW 12.7 mph - 0.01 in Rain Light Rain
10:53 PM 41.0 °F 33.9 °F 39.0 °F 93% 30.06 in 6.0 mi NNW 12.7 mph - 0.01 in   Overcast
11:53 PM 41.0 °F 33.9 °F 37.9 °F 89% 30.05 in 8.0 mi North 12.7 mph - 0.00 in Rain Light Rain